Santa Ana, CA

8:01 PM PST on December 17, 2017 (GMT -0800)
John Wayne-Orange County

Weather History for KSNA - June, 2013

Change the Weather History Date:

Monday, June 24, 2013

  Actual Average Record
Temperature  
Mean Temperature 68 °F 68 °F  
Max Temperature 74 °F 75 °F 81 °F (2005)
Min Temperature 62 °F 62 °F 60 °F (2005)
Degree Days  
Heating Degree Days 0 0  
Month to date heating degree days 0 0  
Since 1 June heating degree days 0 0  
Since 1 July heating degree days 1096 1245  
Cooling Degree Days 3 3  
Month to date cooling degree days 66 55  
Year to date cooling degree days 146 122  
Since 1 June cooling degree days 66 55  
Growing Degree Days 18 (Base 50)    
Moisture  
Dew Point 57 °F    
Average Humidity 72    
Maximum Humidity 90    
Minimum Humidity 53    
Precipitation  
Precipitation 0.01 in 0.00 in 0.01 in (2013)
Month to date precipitation 0.01 0.07  
Year to date precipitation 1.97 8.95  
Since 1 July precipitation 4.99  
Snow  
Snow 0.00 in - - ()
Month to date snowfall 0.0  
Year to date snowfall 0.0  
Snow Depth 0.00 in    
Sea Level Pressure  
Sea Level Pressure 29.91 in    
Wind  
Wind Speed 7 mph (South)    
Max Wind Speed 10 mph    
Max Gust Speed -    
Visibility 8 miles    
Events Rain    
T = Trace of Precipitation, MM = Missing Value Source: NWS Daily Summary

Daily Weather History Graph

Daily Weather History Graph

Search for Another Location

Airport or City:

Trip Planner

Search our weather history database for the weather conditions in past years. The results will help you decide how hot, cold, wet, or windy it might be!

Date:

Astronomy

Jun. 24, 2013 Rise Set
Actual Time 5:42 AM PDT 8:05 PM PDT
Civil Twilight 5:13 AM PDT 8:34 PM PDT
Nautical Twilight 4:37 AM PDT 9:10 PM PDT
Astronomical Twilight 3:58 AM PDT 9:49 PM PDT
Moon 9:18 PM PDT (6/24) 7:10 AM PDT (6/24)
Length of Visible Light 15h 21m
Length of Day
14h 23m
Full, 97% of the Moon is Illuminated
Jun 24
Full
Jun 29
Last Quarter
Jul 8
New
Jul 15
First Quarter
Jul 22
Full

Hourly Weather History & Observations

Time (PDT) Temp. Dew Point Humidity Pressure Visibility Wind Dir Wind Speed Gust Speed Precip Events Conditions
12:53 AM 64.9 °F 57.0 °F 75% 29.83 in 10.0 mi SSW 5.8 mph - N/A   Overcast
1:53 AM 64.0 °F 57.0 °F 78% 29.83 in 9.0 mi SSW 6.9 mph - N/A   Overcast
2:53 AM 64.9 °F 55.9 °F 73% 29.84 in 10.0 mi SSE 4.6 mph - N/A   Overcast
3:53 AM 64.9 °F 53.1 °F 65% 29.84 in 10.0 mi SE 8.1 mph - N/A   Overcast
4:53 AM 64.9 °F 53.1 °F 65% 29.86 in 10.0 mi ESE 5.8 mph - N/A   Overcast
5:53 AM 64.0 °F 57.0 °F 78% 29.87 in 10.0 mi South 4.6 mph - N/A   Overcast
6:53 AM 63.0 °F 55.9 °F 78% 29.89 in 6.0 mi SE 5.8 mph - N/A   Haze
7:53 AM 63.0 °F 57.0 °F 81% 29.91 in 4.0 mi South 5.8 mph - N/A   Haze
8:00 AM 62.6 °F 57.2 °F 82% 29.91 in 4.0 mi SSE 4.6 mph - N/A   Haze
8:21 AM 62.6 °F 57.2 °F 82% 29.92 in 6.0 mi SSE 4.6 mph - N/A   Haze
8:53 AM 63.0 °F 57.9 °F 84% 29.94 in 3.0 mi SW 4.6 mph - 0.00 in Rain Light Rain
8:55 AM 62.6 °F 59.0 °F 88% 29.93 in 2.0 mi SSW 5.8 mph - 0.00 in Rain Light Rain
8:58 AM 62.6 °F 59.0 °F 88% 29.94 in 1.8 mi SSW 6.9 mph - 0.00 in Rain Light Rain
9:02 AM 62.6 °F 59.0 °F 88% 29.94 in 2.5 mi South 6.9 mph - 0.00 in Rain Light Rain
9:06 AM 62.6 °F 59.0 °F 88% 29.94 in 3.0 mi South 5.8 mph - 0.00 in Rain Light Rain
9:10 AM 62.6 °F 59.0 °F 88% 29.94 in 3.0 mi South 6.9 mph - 0.00 in Rain Light Rain
9:53 AM 63.0 °F 59.0 °F 87% 29.94 in 3.0 mi South 4.6 mph - 0.01 in Rain Light Rain
10:03 AM 62.6 °F 59.0 °F 88% 29.94 in 8.0 mi South 5.8 mph - 0.00 in   Overcast
10:53 AM 63.0 °F 59.0 °F 87% 29.95 in 3.0 mi South 4.6 mph - 0.00 in Rain Light Rain
11:00 AM 62.6 °F 59.0 °F 88% 29.95 in 6.0 mi SSW 4.6 mph - 0.00 in   Overcast
11:53 AM 64.9 °F 57.9 °F 78% 29.94 in 10.0 mi SSW 8.1 mph - 0.00 in   Overcast
12:00 PM 64.4 °F 57.2 °F 77% 29.94 in 10.0 mi South 8.1 mph - N/A   Overcast
12:53 PM 69.1 °F 55.9 °F 63% 29.94 in 10.0 mi SSE 5.8 mph - N/A   Overcast
1:53 PM 72.0 °F 55.9 °F 57% 29.93 in 10.0 mi SSW 6.9 mph - N/A   Overcast
2:53 PM 73.0 °F 55.9 °F 55% 29.92 in 10.0 mi South 6.9 mph - N/A   Mostly Cloudy
3:53 PM 73.9 °F 55.9 °F 53% 29.91 in 10.0 mi SW 9.2 mph - N/A   Scattered Clouds
4:53 PM 73.0 °F 55.0 °F 53% 29.90 in 10.0 mi SSW 10.4 mph - N/A   Scattered Clouds
5:53 PM 72.0 °F 55.9 °F 57% 29.89 in 10.0 mi WSW 6.9 mph - N/A   Scattered Clouds
6:53 PM 71.1 °F 55.9 °F 59% 29.90 in 10.0 mi WSW 5.8 mph - N/A   Scattered Clouds
7:53 PM 69.1 °F 57.0 °F 65% 29.91 in 10.0 mi WSW 4.6 mph - N/A   Scattered Clouds
8:53 PM 68.0 °F 57.9 °F 70% 29.92 in 10.0 mi WSW 3.5 mph - N/A   Scattered Clouds
9:53 PM 66.0 °F 57.9 °F 75% 29.94 in 10.0 mi Calm Calm - N/A   Partly Cloudy
10:53 PM 66.0 °F 59.0 °F 78% 29.94 in 10.0 mi SW 3.5 mph - N/A   Partly Cloudy
11:53 PM 66.0 °F 59.0 °F 78% 29.93 in 10.0 mi Calm Calm - N/A   Clear